Riverton, WY

2:49 PM MST on December 05, 2016 (GMT -0700)
Thermopolis

Weather History for KTBX - September, 2013

Change the Weather History Date:

Tuesday, September 24, 2013

  Actual Average (KRIW) Record (KRIW)
Temperature  
Mean Temperature 55 °F 54 °F  
Max Temperature 64 °F 68 °F 84 °F (2014)
Min Temperature 46 °F 41 °F 24 °F (2000)
Degree Days  
Heating Degree Days 10 11  
Month to date heating degree days 153  
Since 1 July heating degree days 191  
Cooling Degree Days 0 0  
Month to date cooling degree days 24  
Year to date cooling degree days 492  
Growing Degree Days 5 (Base 50)    
Moisture  
Dew Point 25 °F    
Average Humidity 34    
Maximum Humidity 53    
Minimum Humidity 16    
Precipitation  
Precipitation 0.00 in 0.04 in 0.67 in (2016)
Month to date precipitation 0.64  
Year to date precipitation 7.46  
Snow  
Snow 0.00 in - - ()
Month to date snowfall  
Since 1 July snowfall  
Since 1 September snowfall  
Snow Depth -    
Sea Level Pressure  
Sea Level Pressure 30.08 in    
Wind  
Wind Speed 13 mph (SSE)    
Max Wind Speed 34 mph    
Max Gust Speed 46 mph    
Visibility 10 miles    
Events      
T = Trace of Precipitation, MM = Missing Value Source: NWS Daily Summary

Daily Weather History Graph

Daily Weather History Graph

Search for Another Location

Airport or City:

Trip Planner

Search our weather history database for the weather conditions in past years. The results will help you decide how hot, cold, wet, or windy it might be!

Date:

Astronomy

Sep. 24, 2013 Rise Set
Actual Time 7:02 AM MDT 7:06 PM MDT
Civil Twilight 6:34 AM MDT 7:34 PM MDT
Nautical Twilight 6:00 AM MDT 8:07 PM MDT
Astronomical Twilight 5:26 AM MDT 8:41 PM MDT
Moon 10:17 PM MDT (9/24) 12:29 PM MDT (9/24)
Length of Visible Light 13h 00m
Length of Day
12h 03m
Waning Gibbous, 72% of the Moon is Illuminated
Sep 24
Waning Gibbous
Sep 26
Last Quarter
Oct 4
New
Oct 11
First Quarter
Oct 18
Full

Hourly Weather History & Observations

Time (MDT) Temp. Windchill Dew Point Humidity Pressure Visibility Wind Dir Wind Speed Gust Speed Precip Events Conditions
12:15 AM 51.8 °F - 23.0 °F 33% 30.17 in 10.0 mi North 6.9 mph - N/A   Clear
12:35 AM 51.8 °F - 23.0 °F 33% 30.18 in 10.0 mi North 5.8 mph - N/A   Clear
12:55 AM 51.8 °F - 21.2 °F 30% 30.18 in 10.0 mi North 4.6 mph - N/A   Clear
1:15 AM 51.8 °F - 21.2 °F 30% 30.18 in 10.0 mi North 4.6 mph - N/A   Clear
1:55 AM 51.8 °F - 21.2 °F 30% 30.18 in 10.0 mi Calm Calm - N/A   Clear
2:15 AM 51.8 °F - 21.2 °F 30% 30.18 in 10.0 mi NE 3.5 mph - N/A   Clear
2:35 AM 50.0 °F - 21.2 °F 32% 30.19 in 10.0 mi NE 4.6 mph - N/A   Clear
2:55 AM 50.0 °F - 23.0 °F 35% 30.19 in 10.0 mi Calm Calm - N/A   Clear
3:15 AM 48.2 °F - 26.6 °F 43% 30.19 in 10.0 mi ESE 4.6 mph - N/A   Clear
3:35 AM 46.4 °F 42.9 °F 26.6 °F 46% 30.19 in 10.0 mi ESE 6.9 mph - N/A   Clear
3:55 AM 48.2 °F - 26.6 °F 43% 30.18 in 10.0 mi SE 4.6 mph - N/A   Clear
4:15 AM 46.4 °F 41.5 °F 26.6 °F 46% 30.18 in 10.0 mi South 10.4 mph - N/A   Clear
4:35 AM 46.4 °F 41.5 °F 24.8 °F 43% 30.18 in 10.0 mi South 10.4 mph - N/A   Clear
4:55 AM 48.2 °F - 26.6 °F 43% 30.17 in 10.0 mi SSW 21.9 mph 28.8 mph N/A   Clear
5:15 AM 46.4 °F 40.7 °F 26.6 °F 46% 30.18 in 10.0 mi SSW 12.7 mph - N/A   Clear
5:35 AM 46.4 °F 39.5 °F 28.4 °F 50% 30.18 in 10.0 mi SW 17.3 mph 24.2 mph N/A   Clear
5:55 AM 50.0 °F - 28.4 °F 43% 30.18 in 10.0 mi SW 21.9 mph 31.1 mph N/A   Clear
6:15 AM 48.2 °F - 28.4 °F 46% 30.18 in 10.0 mi SW 18.4 mph 28.8 mph N/A   Clear
6:35 AM 48.2 °F - 28.4 °F 46% 30.18 in 10.0 mi SSW 15.0 mph 23.0 mph N/A   Clear
6:55 AM 46.4 °F 41.5 °F 28.4 °F 50% 30.18 in 10.0 mi South 10.4 mph - N/A   Clear
7:15 AM 46.4 °F 41.1 °F 28.4 °F 50% 30.19 in 10.0 mi South 11.5 mph - N/A   Clear
7:35 AM 46.4 °F 41.9 °F 28.4 °F 50% 30.19 in 10.0 mi South 9.2 mph - N/A   Clear
7:55 AM 46.4 °F 41.9 °F 30.2 °F 53% 30.19 in 10.0 mi SSE 9.2 mph - N/A   Clear
8:15 AM 46.4 °F 41.9 °F 30.2 °F 53% 30.19 in 10.0 mi South 9.2 mph - N/A   Clear
8:35 AM 46.4 °F 42.9 °F 30.2 °F 53% 30.19 in 10.0 mi SSE 6.9 mph - N/A   Clear
8:55 AM 46.4 °F 43.5 °F 30.2 °F 53% 30.20 in 10.0 mi SE 5.8 mph - N/A   Clear
9:15 AM 46.4 °F 42.4 °F 30.2 °F 53% 30.19 in 10.0 mi SSE 8.1 mph - N/A   Clear
9:35 AM 50.0 °F - 30.2 °F 47% 30.19 in 10.0 mi SSE 9.2 mph - N/A   Clear
9:55 AM 48.2 °F - 30.2 °F 50% 30.20 in 10.0 mi SE 6.9 mph - N/A   Clear
10:15 AM 48.2 °F - 30.2 °F 50% 30.19 in 10.0 mi ESE 9.2 mph - N/A   Clear
10:35 AM 50.0 °F - 30.2 °F 47% 30.18 in 10.0 mi SE 11.5 mph - N/A   Clear
10:55 AM 50.0 °F - 30.2 °F 47% 30.17 in 10.0 mi SE 17.3 mph - N/A   Clear
11:15 AM 51.8 °F - 30.2 °F 44% 30.16 in 10.0 mi ESE 18.4 mph - N/A   Clear
11:35 AM 51.8 °F - 30.2 °F 44% 30.15 in 10.0 mi SE 21.9 mph - N/A   Clear
12:15 PM 53.6 °F - 26.6 °F 35% 30.13 in 10.0 mi ESE 25.3 mph 28.8 mph N/A   Clear
12:35 PM 55.4 °F - 26.6 °F 33% 30.13 in 10.0 mi ESE 21.9 mph - N/A   Clear
12:55 PM 55.4 °F - 28.4 °F 36% 30.12 in 10.0 mi SE 21.9 mph 31.1 mph N/A   Clear
1:15 PM 57.2 °F - 28.4 °F 33% 30.10 in 10.0 mi SE 24.2 mph 33.4 mph N/A   Clear
1:35 PM 59.0 °F - 28.4 °F 31% 30.08 in 10.0 mi SE 28.8 mph 32.2 mph N/A   Clear
1:55 PM 59.0 °F - 28.4 °F 31% 30.08 in 10.0 mi ESE 21.9 mph 31.1 mph N/A   Clear
2:15 PM 59.0 °F - 30.2 °F 34% 30.06 in 10.0 mi ESE 25.3 mph 33.4 mph N/A   Clear
2:35 PM 60.8 °F - 30.2 °F 31% 30.03 in 10.0 mi ESE 28.8 mph 38.0 mph N/A   Clear
2:55 PM 62.6 °F - 30.2 °F 30% 30.01 in 10.0 mi SE 29.9 mph 41.4 mph N/A   Clear
3:15 PM 62.6 °F - 24.8 °F 24% 29.99 in 10.0 mi SE 34.5 mph 42.6 mph N/A   Clear
3:35 PM 64.4 °F - 23.0 °F 21% 29.98 in 10.0 mi SE 31.1 mph 46.0 mph N/A   Clear
3:55 PM 64.4 °F - 23.0 °F 21% 29.97 in 10.0 mi SE 33.4 mph 43.7 mph N/A   Clear
4:15 PM 64.4 °F - 21.2 °F 19% 29.97 in 10.0 mi SSE 28.8 mph 41.4 mph N/A   Clear
4:35 PM 64.4 °F - 19.4 °F 18% 29.95 in 10.0 mi SE 28.8 mph 41.4 mph N/A   Clear
4:55 PM 64.4 °F - 19.4 °F 18% 29.95 in 10.0 mi SE 24.2 mph 39.1 mph N/A   Clear
5:15 PM 64.4 °F - 19.4 °F 18% 29.95 in 10.0 mi SE 28.8 mph 36.8 mph N/A   Clear
5:35 PM 64.4 °F - 19.4 °F 18% 29.94 in 10.0 mi SE 29.9 mph 40.3 mph N/A   Clear
5:55 PM 64.4 °F - 19.4 °F 18% 29.94 in 10.0 mi SSE 28.8 mph 40.3 mph N/A   Clear
6:15 PM 64.4 °F - 17.6 °F 16% 29.93 in 10.0 mi SSE 26.5 mph 40.3 mph N/A   Clear
6:35 PM 62.6 °F - 17.6 °F 18% 29.92 in 10.0 mi SSE 26.5 mph 38.0 mph N/A   Clear
6:55 PM 62.6 °F - 17.6 °F 18% 29.92 in 10.0 mi SSE 20.7 mph 34.5 mph N/A   Clear
7:15 PM 62.6 °F - 17.6 °F 18% 29.93 in 10.0 mi SSE 19.6 mph 31.1 mph N/A   Clear
7:35 PM 60.8 °F - 19.4 °F 20% 29.93 in 10.0 mi SSE 20.7 mph 28.8 mph N/A   Clear
7:55 PM 62.6 °F - 19.4 °F 19% 29.94 in 10.0 mi SSE 20.7 mph 29.9 mph N/A   Scattered Clouds
8:15 PM 62.6 °F - 19.4 °F 19% 29.98 in 10.0 mi SW 19.6 mph 27.6 mph N/A   Mostly Cloudy
8:35 PM 59.0 °F - 26.6 °F 29% 29.98 in 10.0 mi WSW 23.0 mph 32.2 mph N/A   Overcast
8:55 PM 57.2 °F - 26.6 °F 31% 29.97 in 10.0 mi WSW 8.1 mph 11.5 mph N/A   Scattered Clouds
9:15 PM 59.0 °F - 24.8 °F 27% 29.97 in 10.0 mi SSW 10.4 mph - N/A   Clear
9:35 PM 59.0 °F - 23.0 °F 25% 29.96 in 10.0 mi SSW 10.4 mph - N/A   Clear
9:55 PM 59.0 °F - 21.2 °F 23% 29.96 in 10.0 mi SSW 17.3 mph 21.9 mph N/A   Scattered Clouds
10:15 PM 59.0 °F - 21.2 °F 23% 29.97 in 10.0 mi South 9.2 mph 13.8 mph N/A   Clear
10:35 PM 59.0 °F - 21.2 °F 23% 29.96 in 10.0 mi SSW 13.8 mph - N/A   Clear
10:55 PM 59.0 °F - 21.2 °F 23% 29.96 in 10.0 mi SSE 8.1 mph - N/A   Clear
11:15 PM 55.4 °F - 24.8 °F 31% 29.95 in 10.0 mi SE 9.2 mph - N/A   Clear
11:35 PM 55.4 °F - 26.6 °F 33% 29.94 in 10.0 mi SE 8.1 mph - N/A   Clear
11:55 PM 53.6 °F - 26.6 °F 35% 29.94 in 10.0 mi ESE 9.2 mph - N/A   Clear